Regional Weather Roundup
Issued by NWS Sterling, VA

Home | Current Version | Previous Version | Graphics & Text | Print | Product List | Glossary On
Versions: 1 2 3 4 5 6 7 8 9 10 11 12 13 14 15 16 17 18 19 20 21 22 23 24 25 26 27 28 29 30 31 32 33 34 35 36 37 38 39 40 41 42 43 44 45 46 47 48 49 50
476
ASUS41 KLWX 211411
RWRLWX

REGIONAL WEATHER ROUNDUP
NATIONAL WEATHER SERVICE BALTIMORE MD/WASHINGTON DC
900 AM EST SUN JAN 21 2018

Note: "FAIR" indicates few or no clouds below 12,000 feet
with no significant weather and/or obstructions to visibility.
 TC=TEMPERATURE CELSIUS

 * =Non NWS site. Station does not report precipitation (e.g. rain,
    snow, etc.), thunder, or fog.

DCZ001-MDZ009-015-VAZ040>042-051-053>054-211500-
WASHINGTON METRO

CITY           SKY/WX    TMP DP  RH WIND       PRES   REMARKS
WASHINGTON NAT CLOUDY    38  33  82 S5        30.22R WCI  34
DULLES         PTSUNNY   39  33  79 CALM      30.19R
ANDREWS AFB    CLOUDY    43  36  76 CALM      30.19R
FT BELVOIR     CLOUDY    35  29  79 CALM        N/A
COLLEGE PARK*  CLOUDY    37  31  82 CALM      30.21R
LEESBURG*      CLOUDY    45  37  76 CALM      30.20R
MANASSAS*      CLOUDY    34  30  85 CALM      30.21R
GAITHERSBURG*  CLOUDY    44  36  73 CALM      30.20R

$$

MDZ006>007-011-014-211500-
BALTIMORE METRO

CITY           SKY/WX    TMP DP  RH WIND       PRES   REMARKS
BWI AIRPORT    PTSUNNY   41  35  79 NW3       30.20R
MD SCIENCE CTR   N/A     45  35  68 MISG      30.20R
MARTIN STATE   CLOUDY    37  36  93 CALM      30.22R
ANNAPOLIS      CLOUDY    37  33  85 CALM      30.20R
FORT MEADE*    CLOUDY    36  32  87 CALM      30.23R

$$

MDZ012-015-019>023-211500-
MARYLAND EASTERN SHORE

CITY           SKY/WX    TMP DP  RH WIND       PRES   REMARKS
OCEAN CITY     PTSUNNY   47  38  71 CALM      30.22R
SALISBURY      PTSUNNY   37  33  85 CALM      30.21R
BAY BRIDGE AP* CLOUDY    39  34  81 CALM      30.21R
CAMBRIDGE*     CLOUDY    37  34  87 CALM      30.21R
EASTON*        CLOUDY    39  36  87 CALM      30.24R

$$

MDZ017>025-211500-
SOUTHERN MARYLAND

CITY           SKY/WX    TMP DP  RH WIND       PRES   REMARKS
PATUXENT RIVER NOT AVBL
ST INIGOES     FAIR      40  35  83 CALM      30.21R
LEONARDTOWN*   FAIR      43  37  81 CALM      30.22S

$$

MDZ003>005-211500-
NORTH CENTRAL MARYLAND

CITY           SKY/WX    TMP DP  RH WIND       PRES   REMARKS
FREDERICK*     CLOUDY    43  34  70 CALM      30.22R
HAGERSTOWN APT CLOUDY    46  37  71 SE5       30.17R
WESTMINSTER*   CLOUDY    45  37  76 CALM      30.18R

$$

MDZ501>502-211500-
WESTERN MARYLAND

CITY           SKY/WX    TMP DP  RH WIND       PRES   REMARKS
OAKLAND*       CLOUDY    39  39 100 W13G18    30.14R WCI  32
CUMBERLAND*    CLOUDY    46  41  81 CALM      30.20R

$$

VAZ025>031-211500-
SHENANDOAH VALLEY

CITY           SKY/WX    TMP DP  RH WIND       PRES   REMARKS
WINCHESTER*    CLOUDY    43  34  70 CALM      30.19R
FRONT ROYAL*   FAIR      43  36  75 MISG      30.16S
LURAY*         FAIR      41  37  87 CALM      30.18S
NEW MARKET*    PTSUNNY   40  35  84 SW5       30.18S
STAUNTON*      FAIR      36  34  90 CALM      30.22R
WAYNESBORO*    FAIR      51  44  76 SW5       30.19R

$$

WVZ021-048>050-054>055-211500-
EASTERN WEST VIRGINIA PANHANDLE

CITY           SKY/WX    TMP DP  RH WIND       PRES   REMARKS
MARTINSBURG    CLOUDY    44  35  70 CALM      30.16R
PETERSBURG*    CLOUDY    53  40  61 W3        30.17R

$$

VAZ036>039-050-211500-
CENTRAL FOOTHILLS

CITY           SKY/WX    TMP DP  RH WIND       PRES   REMARKS
CHARLOTTESVILL FAIR      47  40  76 CALM      30.19R
CULPEPER*      FAIR      36  29  76 CALM      30.21R
ORANGE*        FAIR      39  34  81 CALM      30.19R
GORDONSVILLE*  FAIR      42  38  86 S7        30.19R
WARRENTON*     FAIR      38  30  74 CALM      30.19R

$$

VAZ055>057-211500-
NORTH AND CENTRAL PIEDMONT

CITY           SKY/WX    TMP DP  RH WIND       PRES   REMARKS
FREDERICKSBRG* CLOUDY    35  32  90 CALM      30.21S
STAFFORD*      FAIR      36  35  97 CALM      30.25S

$$

NCZ024-NYZ072-PAZ021-071-VAZ022-071-211500-
OTHER REGIONAL OBSERVATIONS

CITY           SKY/WX    TMP DP  RH WIND       PRES   REMARKS
NEW YORK CITY  FAIR      45  28  51 MISG      30.19R
PHILADELPHIA   PTSUNNY   38  31  76 SW6       30.21R WCI  33
PITTSBURGH     CLOUDY    42  41  96 SW5       30.13R FOG
ROANOKE        PTSUNNY   47  36  65 W9        30.25R
RICHMOND       FAIR      42  38  85 SE5       30.22R
RALEIGH        FAIR      41  34  76 CALM      30.25R

$$

ANZ530>537-211500-
MARINE OBSERVATIONS

STATION/POSITION TIME  TEMP    WIND        PRES
                       AIR SEA DIR/SP/G
                 (UTC) (F)     (DEG/KT/KT) (MB)
THOMAS PT LIGHT  1400   36 32  210/  4/  4   N/A
BALT KEY BRIDGE  1342   39      20/  3/  4 1022.7R
COVE POINT       1342   50     230/  2/  3 1023.6R
LEWISETTA        1342   37 34  150/  1/  2 1023.2R
SOLOMONS ISLAND  1342   42 34  280/  1/  2 1022.7R
PINEY POINT      1336          180/  1/  1   N/A

$$





USA.gov is the U.S. government's official web portal to all federal, state and local government web resources and services.